DECAYED

STARLINK-1639, 46135 (Decayed)

Orbit data source: Space-Track

STARLINK-1639, 46135 was a payload satellite owned by SpaceX/Seattle (US) in LEO that was launched on Tue, 18 Aug 2020 UTC via an FALCON 9 launch vehicle from the Air Force Eastern Test Range (AFETR). Payload-class satellites include a variety of spacecraft equipped with specific instruments for various scientific and technological missions. These include communications satellites like Starlink; space stations such as the ISS; scientific satellites like the Hubble; Earth observation satellites from companies like Planet Labs, Umbra, and HawkEye 360; GPS; miniature CubeSats for education and research; and military/defense satellites.

Not visible in the next 10 days
Identifier
46135, 2020-057U
Orbit
Decayed
Country
Flag of USUS
Related business
Manufacturer
SpaceX/Seattle
Mission
Decayed Commercial Communications
Bus & Motor
STARLINK, Unknown motor
Mass
260 kg wet, ~248 kg dry
Launch date (UTC)
2020-08-18 (5 years ago)
Launch vehicle
FALCON 9
Launch site
Air Force Eastern Test Range (AFETR)
Object type
Payload
Rocket body
Debris
Shape & HBR
Box + 1 Pan, 10.1 m
Radar Cross Section
13.562 m², Large (>1 m²)

Expand to show TLE details & history
Last TLE update: 2 months ago

TLE from 2 months ago
0 STARLINK-1639
1 46135U 20057U   25221.57559625  .31736333  12647-4  34220-3 0  9996
2 46135  53.0151  91.2688 0009089 272.8456 176.4970 16.49896577276113
Epoch: 2025-08-09T13:48Z
TLE epoch observation values (Epoch: 2025-08-09T13:48:51.515Z)
Latitude
53.16929°
Longitude
14.66146°
Altitude
151.987 km
Speed
7.818 km/s
True Right ascension
12h 00m 44s
True Declination
52° 59' 20"
Sunlit
Object was in daylight at epoch
Visualization orbit readout
Latitude
Unknown
Longitude
Unknown
Altitude
Unknown
Speed
Unknown
Apparent Right ascension
Unknown
Apparent Declination
Unknown
Sunlit
N/A
Visualization observer readout
Local Sidereal Time
15:29:27
Azimuth
Unknown
Elevation
Unknown
Doppler factor
Unknown
Orbital elements
Apogee altitude
145.826 km
Perigee altitude
133.978 km
Semi-major axis
6,518.039 km
Eccentricity
0.00091
Inclination
53.0151°
RAAN
91.2688°
Arg. of periapsis
272.8456°
True anomaly
176.50336°
Mean anomaly
176.497°
Eccentric anomaly
176.50018°
Mean motion
4.12447 °/min
Orbital period
87.28 mins
BSTAR
0.0003422
Loading maneuver chart data...
Computing Atmospheric mass density...
Loading historical data...
Loading historical data...
Loading historical data...
Loading historical data...
Loading historical data...
Loading historical data...
Loading historical data...

Documentation

Showing up to 5 results
|